Simultaneous Nadir Overpasses (SNOs) Predictions

Prediction of SNOs between METOP-A and TERRA Satellite Orbit:

Table of predicted SNOs for the next 14.0 days since TLE Epoch: 8/23/2014
Index Date (METOP-A) Time (METOP-A) Lat,Lon (METOP-A) SZA (METOP-A ) Date (TERRA) Time (TERRA) Lat,Lon (TERRA) SZA (TERRA ) Distance(km) Time Diff (sec)
1 08/25/2014 12:14:25 -81.28,-136.91 106.68 08/25/2014 12:15:00 -81.29,-136.74 106.64 3.03 35
2 08/25/2014 13:05:04 81.29, 31.04 73.42 08/25/2014 13:04:26 81.30, 31.03 73.40 0.57 38
3 08/28/2014 07:48:48 -81.28, -70.60 105.69 08/28/2014 07:49:16 -81.28, -70.49 105.66 1.78 28
4 08/28/2014 08:39:27 81.29, 97.35 74.41 08/28/2014 08:38:42 81.28, 97.24 74.37 1.90 45
5 08/31/2014 03:23:11 -81.28, -3.93 104.63 08/31/2014 03:23:32 -81.28, -3.95 104.63 0.23 21
6 08/31/2014 04:13:51 81.29, 163.62 75.41 08/31/2014 04:12:58 81.29, 163.76 75.40 2.32 53
7 09/02/2014 22:57:34 -81.29, 62.69 103.57 09/02/2014 22:57:48 -81.29, 62.52 103.58 2.83 14
8 09/02/2014 23:48:14 81.29,-129.76 76.48 09/02/2014 23:47:14 81.29,-129.80 76.44 0.81 60
9 09/05/2014 18:31:57 -81.28, 128.88 102.53 09/05/2014 18:32:03 -81.28, 128.92 102.53 0.55 6




NCC Satellite Simultaneous Nadir Overpasses (SNOs) Prediction Service
